This is the latest recevied weather packets stored in our database for station/object N9NDF. If no packets are shown the sender has not sent any weather packets the latest 10 day(s).
| Time | Temp. | Humidity | Pressure | Rain* | Wind** | Luminosity | Snow |
|---|---|---|---|---|---|---|---|
| 1777302201 | 15° C | 95% | 984.7 hPa | 3.56 mm | - | 2 W/m² | - |
| 1777302134 | 15° C | 95% | 984.4 hPa | 3.56 mm | - | 3 W/m² | - |
| 1777302074 | 15° C | 95% | 984.1 hPa | 4.06 mm | - | 4 W/m² | - |
| 1777302014 | 15° C | 95% | 983.9 hPa | 3.81 mm | - | 3 W/m² | - |
| 1777301954 | 15° C | 95% | 983.9 hPa | 4.06 mm | - | 4 W/m² | - |
| 1777301894 | 15° C | 95% | 983.8 hPa | 4.32 mm | - | 4 W/m² | - |
| 1777301835 | 15° C | 95% | 983.8 hPa | 4.57 mm | - | 4 W/m² | - |
| 1777301774 | 15° C | 95% | 983.7 hPa | 4.83 mm | - | 4 W/m² | - |
| 1777301715 | 15° C | 95% | 983.5 hPa | 5.08 mm | - | 5 W/m² | - |
| 1777301652 | 15° C | 95% | 983.2 hPa | 5.33 mm | - | 7 W/m² | - |
| 1777301586 | 15° C | 95% | 983 hPa | 5.59 mm | - | 8 W/m² | - |
| 1777301558 | 15° C | 95% | 982.9 hPa | 5.84 mm | - | 9 W/m² | - |
| 1777301462 | 15° C | 95% | 982.7 hPa | 6.1 mm | - | 15 W/m² | - |
| 1777301426 | 15° C | 95% | 982.6 hPa | 6.1 mm | - | 16 W/m² | - |
| 1777301406 | 15° C | 95% | 982.6 hPa | 6.35 mm | - | 16 W/m² | - |
| 1777301282 | 15° C | 95% | 982.5 hPa | 6.6 mm | - | 17 W/m² | - |
| 1777301222 | 15° C | 95% | 982.5 hPa | 6.6 mm | - | 18 W/m² | - |
| 1777301162 | 15° C | 95% | 982.4 hPa | 6.6 mm | - | 19 W/m² | - |
| 1777301102 | 15° C | 94% | 982.4 hPa | 6.86 mm | - | 19 W/m² | - |
| 1777301046 | 15° C | 94% | 982.4 hPa | 6.86 mm | - | 21 W/m² | - |
| 1777300982 | 15° C | 94% | 982.4 hPa | 6.86 mm | - | 21 W/m² | - |
| 1777300922 | 15° C | 94% | 982.3 hPa | 6.86 mm | - | 20 W/m² | - |
| 1777300862 | 15° C | 94% | 982.4 hPa | 6.86 mm | - | 18 W/m² | - |
| 1777300803 | 15° C | 94% | 982.5 hPa | 7.11 mm | - | 18 W/m² | - |
| 1777300747 | 15° C | 94% | 982.7 hPa | 7.11 mm | - | 18 W/m² | - |
* Rain latest hour (hover to see other rain measurements)
** Current wind speed in m/s (hover to see current wind gust speed)